STARLINK-32277, 60376

Orbit data source: Space-Track

STARLINK-32277, 60376 is a payload satellite owned by SpaceX/Seattle (US) in LEO that was launched on Sun, 04 Aug 2024 UTC via an FALCON 9 launch vehicle from the Air Force Western Test Range (AFWTR). Payload-class satellites include a variety of spacecraft equipped with specific instruments for various scientific and technological missions. These include communications satellites like Starlink; space stations such as the ISS; scientific satellites like the Hubble; Earth observation satellites from companies like Planet Labs, Umbra, and HawkEye 360; GPS; miniature CubeSats for education and research; and military/defense satellites.

Loading next visibility...
Identifier
60376, 2024-138X
Orbit
LEO
Country
Flag of USUS
Related business
Manufacturer
SpaceX/Seattle
Mission
Operational Commercial Communications
Bus & Motor
STARLINK V2M, Unknown motor
Mass
730 kg wet, ~700 kg dry
Launch date (UTC)
2024-08-04 (2 years ago)
Launch vehicle
FALCON 9
Launch site
Air Force Western Test Range (AFWTR)
Object type
Payload
Rocket body
Debris
Shape & HBR
Box + 2 Pan, 17.7 m
Radar Cross Section
33.884 m², Large (>1 m²)

Expand to show TLE details & history
Last TLE update: 14 hours ago

TLE from 14 hours ago
0 STARLINK-32277
1 60376U 24138X   26258.13334842  .00000635  00000-0  29953-4 0  9997
2 60376  53.1614 148.8512 0001878  88.9876 271.1342 15.34388553119649
Epoch: 2026-09-15T03:12Z
TLE epoch observation values (Epoch: 2026-09-15T03:12:01.303Z)
Latitude
-0°
Longitude
106.7421°
Altitude
463.614 km
Speed
7.636 km/s
True Right ascension
09h 55m 24s
True Declination
0° 00' 00"
Sunlit
Object was in daylight at epoch
Visualization orbit readout
Latitude
Unknown
Longitude
Unknown
Altitude
Unknown
Speed
Unknown
Apparent Right ascension
Unknown
Apparent Declination
Unknown
Sunlit
N/A
Visualization observer readout
Local Sidereal Time
09:25:23
Azimuth
Unknown
Elevation
Unknown
Doppler factor
Unknown
Orbital elements
Apogee altitude
464.279 km
Perigee altitude
461.709 km
Semi-major axis
6,841.131 km
Eccentricity
0.00019
Inclination
53.1614°
RAAN
148.8512°
Arg. of periapsis
88.9876°
True anomaly
271.11268°
Mean anomaly
271.1342°
Eccentric anomaly
271.12344°
Mean motion
3.83576 °/min
Orbital period
93.85 mins
BSTAR
0.000029953
Loading maneuver chart data...
Computing Atmospheric mass density...
Loading historical data...
Loading historical data...
Loading historical data...
Loading historical data...
Loading historical data...
Loading historical data...
Loading historical data...

Documentation

Showing up to 5 results
|